Theta_e
331 339 337 329 325 325 326 328 328 330 331 330 330 331 335 337 339 338 337 332 328 330 335 336 336 337 337 336 336 335 334 332 332 331 329 325 320 321 325 326 325 323 321
333 340 330 328 328 328 330 330 330 330 329 332 336 337 337 335 333 328 322 319 316 316 317 321 324 328 329 331 332 334 335 336 336 334 332 331 329 326 322 324 326 324 322
335 334 329 329 330 331 331 331 331 332 333 331 329 327 325 320 316 313 311 309 308 308 309 309 310 311 312 314 317 322 328 332 334 335 336 335 332 332 330 325 325 325 328
332 330 330 331 332 332 331 332 335 332 326 320 316 314 313 311 309 308 308 308 309 309 309 309 309 309 309 309 309 309 310 312 319 325 329 332 334 332 333 331 328 333 332
331 330 331 332 332 332 333 337 334 326 316 314 312 311 309 308 308 308 309 309 309 308 308 308 307 307 307 308 308 309 309 309 309 309 311 317 323 328 331 332 333 333 333
331 331 331 333 332 336 336 333 327 317 314 312 310 309 308 308 308 309 309 308 308 308 307 307 307 307 307 307 307 307 306 307 307 309 309 309 309 311 319 328 331 333 334
331 331 333 333 335 335 332 327 318 314 312 309 309 308 308 308 309 309 308 308 308 307 307 306 306 306 306 306 306 306 307 307 307 307 307 308 309 309 309 310 319 328 330
332 333 334 336 337 334 329 320 315 312 310 309 308 308 308 309 308 308 308 307 307 307 306 306 306 306 306 306 307 307 307 308 308 309 310 310 309 309 310 317 312 310 319
332 334 338 338 336 332 324 317 312 310 309 309 309 309 309 308 308 308 307 307 307 307 307 307 306 306 306 306 307 308 309 309 310 310 311 311 311 311 320 322 320 324 321
334 336 338 337 334 330 321 314 311 310 309 309 309 309 308 308 307 307 307 307 307 307 306 306 306 305 305 305 306 308 309 310 311 311 312 313 313 323 322 321 321 319 323
336 338 338 336 334 327 319 312 311 310 309 309 310 308 308 307 307 308 308 308 307 307 306 306 306 305 305 304 305 307 309 310 311 312 313 314 314 321 322 319 316 316 317
337 337 337 336 333 325 320 312 311 310 309 310 309 308 308 307 308 308 308 308 307 307 306 306 305 305 305 304 304 306 309 310 311 313 314 315 317 320 320 319 318 317 317
335 336 337 336 330 325 320 312 311 310 310 310 308 308 308 308 308 308 308 308 308 307 306 305 305 305 305 304 303 304 308 310 311 312 313 314 316 318 318 319 318 318 319
336 336 336 335 328 326 319 312 311 310 310 310 308 308 308 308 308 308 308 308 308 307 306 306 305 305 305 304 304 303 306 310 310 311 313 313 316 318 318 318 317 316 316
336 336 335 330 329 328 321 313 311 310 310 310 309 308 308 308 308 308 308 308 308 306 306 306 306 305 305 305 304 304 307 309 310 311 313 313 316 317 317 317 316 311 310
336 334 331 330 331 329 322 314 312 311 310 310 309 308 308 308 308 308 307 307 308 306 307 307 306 306 306 305 304 305 307 309 311 311 312 314 314 315 315 312 311 311 311
337 336 335 333 332 330 324 317 313 311 311 310 309 309 308 308 308 308 307 308 307 307 307 307 306 307 306 306 305 306 308 310 310 312 314 313 312 312 311 311 308 308 310
337 337 335 335 333 332 327 321 317 313 311 310 309 309 309 309 308 307 307 308 307 307 307 307 307 307 307 307 306 306 309 312 312 313 313 313 313 312 311 308 308 308 308
337 337 336 334 333 332 328 324 320 315 312 311 310 309 309 309 308 307 307 308 306 307 308 308 308 308 308 308 308 306 307 309 312 313 313 313 313 311 312 311 311 310 309
336 335 334 334 333 332 328 325 322 318 313 311 310 310 309 309 308 306 308 307 307 308 308 308 308 308 308 308 308 308 307 307 309 310 309 310 312 312 312 312 312 311 310
337 336 334 334 332 330 325 324 322 316 313 311 310 310 309 309 308 307 309 306 308 308 308 308 307 307 307 307 307 307 307 306 308 309 306 307 311 312 312 312 312 311 311
335 335 334 332 332 328 325 324 319 314 313 312 311 310 309 309 307 309 306 308 308 308 307 307 306 306 306 306 306 307 307 306 307 307 306 306 309 310 310 307 304 305 307
335 335 334 333 330 327 325 323 317 314 313 312 310 310 309 307 309 306 307 308 307 307 306 305 305 305 304 304 305 306 307 307 307 306 307 305 306 305 306 306 305 306 304
335 334 332 330 327 325 324 322 316 313 313 311 310 310 308 309 306 307 307 306 306 305 305 304 304 303 302 302 303 304 305 307 306 307 306 306 306 306 307 307 307 306 304
331 330 330 326 319 316 317 316 314 313 312 310 309 308 309 306 307 307 306 305 305 304 303 302 302 302 302 302 302 303 304 305 306 307 307 306 306 306 306 306 306 307 304
327 326 322 313 311 311 311 313 313 312 310 310 309 308 306 307 306 306 305 305 304 303 302 303 303 303 303 303 302 302 303 305 306 307 307 307 306 305 305 305 306 306 306
Wind_Speed
21 18 16 12 12 11 11 10 10 9 8 8 8 8 8 8 9 7 5 6 6 3 2 3 3 4 5 6 7 8 9 9 8 9 9 8 8 7 7 7 6 6 6
25 21 15 13 12 11 11 10 9 8 8 7 7 7 5 3 4 6 7 7 7 7 7 6 7 7 7 8 8 8 7 6 7 8 8 9 9 9 9 9 8 7 7
25 21 16 14 13 11 10 9 8 7 5 4 2 1 2 4 6 7 7 8 8 7 7 8 8 9 10 10 10 11 12 12 11 10 9 10 10 9 10 9 9 9 9
23 20 17 15 13 11 9 8 7 4 3 3 3 4 5 5 6 7 7 8 9 10 11 12 12 11 11 12 12 12 14 14 15 16 15 14 13 12 11 10 9 10 11
22 19 17 15 12 10 9 8 4 3 4 5 5 6 6 6 7 8 9 11 12 12 12 12 13 13 13 13 12 13 14 15 16 16 17 17 17 15 14 13 12 13 13
21 19 16 14 12 10 8 4 3 4 5 5 6 6 6 7 8 10 11 13 13 13 13 14 14 14 14 14 14 14 14 15 15 15 16 17 17 17 17 17 17 17 15
22 19 16 13 11 10 6 4 3 4 5 6 6 7 7 8 10 11 12 12 13 13 13 14 15 15 15 15 15 15 15 15 14 14 14 14 15 15 15 16 19 20 20
21 19 16 14 11 8 5 4 4 4 5 6 7 7 8 9 10 11 11 12 13 13 14 15 16 16 16 16 16 16 15 15 14 14 13 13 13 13 12 12 14 17 21
20 19 17 15 10 7 5 4 4 4 5 6 7 8 8 9 10 10 11 13 15 16 17 17 17 18 18 18 17 17 15 14 14 13 13 13 12 10 9 10 9 9 11
20 17 16 13 9 6 4 4 4 5 5 6 7 8 8 9 10 11 13 14 15 17 18 19 19 19 19 18 18 17 16 14 12 12 12 12 10 8 7 9 9 10 9
20 18 15 12 9 6 5 4 4 5 5 7 8 8 9 9 10 12 14 15 17 19 20 20 20 19 19 18 17 16 16 14 13 12 11 11 9 7 8 10 9 10 11
23 19 15 12 8 6 4 3 4 5 6 7 7 8 8 9 11 13 14 16 18 19 19 19 19 19 18 18 17 15 14 13 11 10 9 9 8 7 8 10 11 11 11
22 18 16 12 10 6 4 3 3 4 5 6 7 7 8 9 11 12 14 16 18 18 18 18 18 19 19 19 17 15 13 12 10 8 7 7 7 8 9 11 11 10 9
21 16 15 13 10 6 4 3 2 4 5 6 6 7 8 8 9 11 13 16 17 18 19 19 19 19 18 20 19 16 13 10 8 7 6 6 5 5 6 9 10 10 8
18 16 15 13 10 6 4 2 1 3 4 5 6 6 7 7 8 11 13 15 17 18 18 19 19 20 22 22 19 15 11 8 7 6 5 5 3 3 5 9 12 14 11
18 15 14 12 9 6 4 2 0 2 3 4 5 6 6 7 8 11 12 15 16 17 18 19 20 21 22 22 19 16 11 8 7 6 4 4 4 4 8 11 12 12 10
17 14 12 10 8 6 4 3 1 2 3 4 5 5 6 7 9 10 12 14 15 16 16 16 16 18 18 19 19 15 11 8 8 6 6 6 6 7 9 12 12 13 11
18 15 12 10 7 6 5 4 3 3 3 4 5 5 6 8 9 10 11 13 15 15 15 16 18 17 18 19 18 14 10 8 7 6 5 6 8 11 12 12 14 15 15
17 14 10 8 8 7 6 5 4 5 4 5 5 5 6 8 9 9 10 13 14 13 15 17 18 20 19 18 18 14 10 8 7 7 7 9 10 11 13 13 14 15 15
16 12 9 8 8 8 7 6 5 6 6 5 5 6 7 8 8 8 10 12 12 13 15 16 17 18 19 18 17 16 9 8 6 8 11 11 10 11 12 15 16 16 16
12 12 9 6 7 8 8 6 6 6 6 6 6 6 7 8 8 8 10 11 12 14 16 18 18 18 18 19 18 15 11 10 6 13 18 11 10 11 14 15 18 19 18
12 13 11 11 10 9 9 7 6 6 6 6 6 7 6 7 7 9 10 10 13 14 16 17 18 19 19 20 19 14 8 9 4 17 11 8 11 13 15 19 19 20 20
18 15 14 13 12 11 10 8 7 7 6 6 6 7 6 6 8 9 10 12 14 16 17 18 18 19 19 18 17 12 7 5 21 5 14 7 16 14 19 21 18 22 18
19 16 15 15 13 12 11 11 10 9 7 6 6 6 6 6 7 9 12 14 15 17 17 18 18 19 19 19 18 16 14 15 10 10 9 16 17 13 23 21 24 21 17
17 18 13 13 12 12 12 12 11 8 7 6 5 4 4 5 8 10 12 14 16 17 17 17 17 17 18 18 17 18 18 17 17 17 20 22 26 23 22 20 18 18 13
16 13 11 11 11 10 10 11 10 8 6 5 3 3 3 6 8 11 14 16 17 17 16 16 16 16 17 18 18 18 18 18 20 19 23 25 26 30 27 24 19 15 16
Wind_Direction
161 153 157 152 138 132 125 114 109 103 97 88 75 61 55 59 65 58 32 4 355 349 4 353 359 3 358 350 349 351 346 344 341 339 337 337 332 328 323 325 329 338 342
154 155 157 149 140 132 125 117 108 99 90 85 94 89 74 50 5 343 343 344 339 329 318 317 317 314 313 316 316 315 323 319 312 313 314 316 318 319 313 311 313 313 323
157 155 154 148 141 134 126 116 103 90 92 84 77 32 350 344 348 349 349 349 349 346 341 333 327 321 313 303 294 292 293 296 300 298 294 300 299 302 305 298 305 306 312
155 153 152 147 140 133 123 107 97 89 57 46 40 29 16 8 0 358 358 356 354 349 342 336 330 324 318 313 307 301 296 293 290 290 290 291 291 294 296 296 289 296 300
155 152 149 144 138 128 115 111 109 53 43 42 33 24 17 11 8 7 0 356 355 356 353 349 342 339 334 326 320 312 305 301 295 291 288 287 285 285 284 283 278 284 285
154 151 147 142 135 126 126 123 78 49 44 35 26 18 17 14 9 5 4 5 4 1 358 353 349 346 341 336 333 327 322 316 312 305 298 293 289 284 280 276 276 278 286
154 150 145 142 141 134 131 117 76 53 37 32 28 23 21 13 9 8 8 8 4 1 1 358 354 350 347 342 339 336 331 325 323 319 313 307 299 294 289 282 276 275 279
154 150 146 143 143 139 134 105 76 51 38 32 29 24 18 15 15 14 10 8 8 7 8 3 359 355 351 349 347 343 338 336 336 333 330 325 318 313 313 314 292 279 275
156 154 149 154 151 147 126 97 71 55 39 32 28 23 21 22 20 18 14 15 13 11 9 4 2 358 356 355 351 348 347 347 347 342 341 340 343 347 345 327 331 325 302
160 159 156 156 153 147 126 99 71 51 41 32 31 29 29 30 24 24 23 19 14 10 9 6 3 360 357 354 352 350 350 352 352 350 347 349 0 15 328 304 308 298 312
162 164 161 160 157 152 132 109 74 52 41 35 34 37 35 30 31 30 23 17 14 13 10 6 3 0 358 356 354 353 354 355 355 356 357 359 9 16 338 332 312 300 299
165 166 166 163 162 154 140 114 73 54 41 37 41 43 37 37 33 26 20 15 16 13 9 6 4 2 358 358 357 354 354 355 354 357 360 4 15 15 357 349 344 335 318
168 166 168 168 166 164 149 125 79 54 43 41 44 40 38 35 30 21 16 14 13 10 9 8 6 4 1 360 359 354 355 355 354 353 357 358 6 15 0 346 346 343 336
168 172 172 172 173 171 162 145 95 58 45 38 37 35 33 30 21 12 11 11 9 8 9 8 8 5 4 4 2 355 350 354 357 356 6 18 35 22 351 338 346 355 8
173 171 173 176 176 176 175 169 94 48 41 35 29 27 24 17 7 5 5 7 6 7 8 7 8 5 5 5 0 359 357 0 13 5 8 11 28 358 327 324 331 338 354
176 172 175 177 181 178 197 204 185 28 19 20 16 13 8 1 357 358 358 3 4 5 6 6 9 7 5 2 2 5 8 12 13 3 9 12 2 327 319 327 338 347 358
181 183 182 186 186 193 215 228 269 338 355 357 357 357 353 349 348 349 354 358 359 4 6 6 10 9 4 7 5 9 13 13 14 21 10 8 359 345 341 344 4 24 24
192 195 190 189 201 208 229 254 286 307 335 339 336 341 341 339 339 341 351 351 357 1 3 2 2 6 6 5 7 7 9 13 10 8 2 351 343 339 348 5 12 11 11
193 195 200 203 208 220 238 258 279 299 312 316 314 318 327 330 333 338 343 349 354 353 359 360 355 354 360 2 1 359 357 358 355 354 343 332 331 334 336 344 347 345 349
196 187 193 214 220 230 241 255 275 290 294 296 295 304 318 324 326 330 339 344 346 350 351 348 349 350 351 356 355 351 341 344 343 345 334 320 320 325 327 326 329 330 333
213 204 209 228 241 238 245 254 271 282 287 284 285 295 308 317 319 327 334 337 343 344 341 339 343 345 346 346 350 354 342 334 317 331 319 306 312 316 320 320 319 317 317
217 217 218 226 244 243 249 259 267 277 280 279 283 290 300 306 312 322 332 337 338 337 335 334 337 339 341 343 346 350 335 333 321 328 337 314 318 316 320 322 319 311 306
216 218 218 230 243 245 247 259 264 265 272 280 278 279 290 301 315 325 332 333 331 331 331 331 333 333 334 336 337 340 335 305 319 297 318 295 329 307 328 324 320 318 307
209 211 220 233 237 239 249 255 256 259 266 263 250 270 287 305 320 329 331 330 329 328 328 328 328 329 329 329 328 323 316 308 314 309 303 298 311 298 315 317 318 319 310
197 219 224 238 241 244 245 246 249 257 255 247 250 259 294 315 323 325 324 323 323 322 323 323 324 326 325 324 321 315 312 308 300 293 302 308 306 310 315 317 319 313 329
207 214 228 240 243 235 234 236 238 245 247 241 250 277 301 309 313 318 321 321 320 321 322 323 324 325 324 321 319 313 309 304 302 296 294 304 306 312 312 315 314 307 303